User: anonymous   Login
Location: Caltech
(34.1382°N, 118.1253°W)
Time: 23:49:17
(UTC-07:00)
Language:

Cosmos 1697 Rocket - Orbit

View from above orbital plane
View from above orbital plane
View from above satellite
View from above satellite

Ground track
Ground track

The orbit data is extracted from the following two-line orbital elements,

1 16182U 85097B   18142.93545765 -.00000256 +00000-0 -10499-3 0  9998
2 16182 071.0037 013.2385 0009822 274.8169 173.8065 14.16230716684041
Epoch (UTC): 22 May 2018 22:27:03
Eccentricity: 0.0009822
inclination: 71.0037°
perigee height: 831 km
apogee height: 845 km
right ascension of ascending node: 13.2385°
argument of perigee: 274.8169°
revolutions per day: 14.16230716
mean anomaly at epoch: 173.8065°
orbit number at epoch: 68404

The dashed part of the orbit path shows where the satellite is in the earth's shadow,  

DLR